Theta_e
314 313 314 313 313 315 315 316 316 317 318 317 317 316 315 315 315 317 317 317 317 315 315 316 316 316 316 317 318 318 319 319 319 320 322 323 321 326 334 336 335 332 334 339 341 342 343 342 341 341 340 338 337 332 328 330 329 330 334 332 330 330 332 333 333 332 331 332 334 333 334 334 332 331 331 332 332 332 332 333 335 332 331 333 330 331
314 313 314 315 314 315 316 316 317 317 318 318 317 315 314 314 315 317 318 317 317 316 315 316 316 316 317 317 318 318 319 319 319 320 320 322 321 320 329 335 334 331 334 339 340 341 343 342 341 342 340 336 333 329 329 331 327 329 334 332 330 329 331 333 333 333 331 332 334 333 334 333 332 331 331 332 332 332 332 333 335 334 333 332 329 330
315 314 314 316 315 315 317 318 318 318 319 318 316 315 313 315 316 316 318 317 316 316 315 316 316 316 317 317 318 318 318 319 319 320 319 320 321 320 323 331 334 334 336 339 340 341 343 342 342 342 339 334 331 327 330 333 328 331 334 333 333 332 331 333 334 334 332 333 334 333 333 332 332 331 330 332 332 333 332 333 335 334 332 332 330 329
315 314 315 316 316 316 317 318 319 319 318 317 316 315 313 315 315 313 317 318 317 316 316 317 316 316 317 317 318 319 319 318 318 319 320 318 319 320 320 325 332 334 336 336 337 340 341 341 342 342 338 334 332 328 330 333 331 331 333 333 334 334 333 334 334 334 333 333 333 332 333 332 332 332 331 333 333 333 334 333 334 334 331 329 330 330
315 316 316 315 316 317 317 318 318 317 316 316 317 316 315 316 315 314 316 318 317 317 317 317 315 314 317 317 317 318 318 318 318 318 320 319 318 320 319 321 327 332 336 333 333 338 340 340 342 344 340 335 332 328 330 332 332 332 333 333 335 335 335 334 334 333 333 333 332 332 332 331 331 332 332 333 333 334 335 333 334 334 329 327 329 330
315 317 318 316 316 316 316 316 317 316 315 316 317 316 316 316 316 316 317 317 315 314 317 316 312 313 316 317 317 318 318 318 318 318 319 319 318 319 320 321 324 330 335 332 332 337 338 340 343 344 342 336 330 329 330 332 333 334 334 335 336 336 335 335 334 334 332 333 333 333 331 330 330 331 331 333 333 333 334 332 333 333 331 328 329 329
315 317 317 316 316 315 315 315 316 317 315 313 317 317 317 317 316 316 315 314 313 312 317 318 313 313 314 316 318 318 319 318 318 319 318 319 319 319 319 319 321 326 332 333 333 335 335 340 343 343 342 338 333 332 333 333 333 333 334 336 336 336 335 335 334 334 333 334 334 332 330 327 328 329 330 333 333 333 333 332 334 333 330 329 328 329
317 317 317 316 316 315 314 314 315 317 315 313 316 317 317 317 315 315 315 314 314 314 316 318 315 313 312 315 318 319 319 318 319 319 318 320 320 321 321 320 320 321 328 334 334 333 333 338 343 342 341 339 336 335 334 334 334 334 334 335 336 335 335 335 335 334 334 334 334 332 331 328 328 329 330 331 332 333 333 334 335 332 329 329 329 329
318 317 317 316 315 315 314 315 315 316 315 315 316 316 316 316 315 315 315 314 315 314 313 314 315 314 312 314 318 318 318 318 318 320 321 323 323 324 324 323 322 320 326 335 334 333 333 336 341 341 340 339 336 335 334 333 334 334 333 334 335 336 335 335 335 335 335 335 334 333 332 331 330 330 331 330 330 331 333 333 332 330 329 330 329 329
318 317 318 316 315 315 315 315 316 316 315 315 316 316 315 316 315 315 315 314 314 313 312 313 314 313 312 314 316 316 317 318 320 324 327 327 326 326 325 325 325 321 327 335 334 333 334 336 338 339 339 338 335 335 335 335 335 334 334 334 335 336 336 336 336 336 335 335 334 333 333 332 331 331 331 331 331 333 333 331 329 330 331 329 327 327
317 317 317 316 316 316 315 316 316 316 316 316 315 315 315 315 315 315 315 313 313 312 312 314 314 312 312 314 315 318 321 324 326 327 328 328 328 328 327 326 325 324 330 336 335 335 337 337 337 336 335 336 335 334 335 336 335 335 335 335 335 336 337 336 336 336 336 335 334 333 332 332 331 330 329 330 332 333 332 330 330 331 331 330 328 325
316 316 316 316 316 317 316 316 317 316 316 316 315 315 313 313 314 314 314 314 313 312 313 314 314 313 312 313 317 321 324 325 326 327 327 327 327 328 330 328 326 329 333 335 336 337 338 337 337 336 335 336 336 335 335 336 335 335 335 336 336 336 337 336 336 336 335 335 332 331 331 330 331 331 330 329 330 331 331 331 331 330 330 330 327 323
315 316 315 316 316 317 316 315 316 316 316 316 315 314 312 312 313 314 314 314 313 313 314 315 315 313 313 316 321 324 324 325 326 327 327 326 326 328 330 330 330 334 335 333 335 337 339 337 338 339 338 338 337 336 336 336 333 332 333 335 335 335 336 336 336 335 336 334 330 330 329 325 328 332 331 330 329 330 331 330 329 329 329 329 326 324
315 316 315 315 315 316 316 315 315 315 315 315 314 313 312 312 314 315 315 314 314 314 314 316 316 314 314 318 324 325 324 326 327 328 329 329 330 331 332 331 332 334 334 333 334 337 339 337 338 340 339 338 338 337 337 336 334 331 330 333 333 334 336 335 336 335 335 335 331 329 327 324 329 332 330 331 330 329 331 329 328 328 329 331 328 327
314 316 316 315 315 316 316 315 315 315 315 315 314 313 312 312 313 315 314 314 315 314 314 316 316 314 314 320 324 325 324 326 327 328 330 330 332 334 334 333 332 332 331 333 336 337 338 337 337 339 338 338 338 338 337 336 335 332 332 334 333 333 334 334 334 334 333 334 331 326 323 325 332 332 330 330 328 328 330 329 329 329 330 330 329 329
314 314 316 316 317 316 315 315 316 315 315 315 315 314 313 313 314 313 314 316 317 316 315 315 316 316 318 323 325 325 325 327 328 329 330 331 332 333 334 334 334 332 330 333 336 336 336 336 336 337 337 337 338 338 337 335 336 335 335 335 334 332 333 333 334 333 332 331 329 326 325 328 332 330 330 330 328 328 330 329 330 330 330 329 328 329
314 314 316 316 317 316 316 317 316 315 315 315 315 313 314 315 315 314 314 315 317 316 314 314 315 316 319 323 325 325 326 328 328 329 330 331 332 333 333 333 333 333 333 334 334 334 335 335 335 336 335 336 337 336 335 335 337 336 334 334 334 332 331 332 333 333 332 330 327 327 328 330 330 329 330 329 328 330 330 329 330 329 329 328 328 329
315 314 315 316 316 316 317 317 316 316 316 315 314 315 315 316 315 315 315 315 316 316 314 313 314 314 317 322 325 325 326 328 328 328 330 330 331 332 333 333 332 333 333 333 334 334 334 334 334 334 334 335 335 335 336 335 336 335 332 332 332 329 328 328 328 330 332 331 328 328 328 329 328 328 329 326 326 328 328 328 330 329 329 328 328 327
316 314 315 316 315 316 316 316 315 316 316 315 316 316 316 314 314 315 314 315 316 316 315 314 314 315 319 322 325 326 327 329 329 328 328 329 330 331 332 332 332 333 333 333 333 333 333 334 334 334 334 334 334 335 335 335 335 334 332 331 330 327 326 327 325 326 329 330 329 329 328 328 327 327 328 325 323 325 327 328 329 328 328 327 326 322
318 315 315 316 316 316 315 314 313 314 315 315 315 316 316 315 315 315 315 315 315 315 316 314 314 319 323 324 325 327 328 330 330 328 328 329 329 330 331 331 331 332 332 332 332 332 332 333 333 334 333 333 333 334 334 334 335 334 332 331 331 328 326 326 325 326 327 327 327 328 328 327 325 325 327 326 322 324 328 328 328 327 325 324 322 318
318 317 316 316 316 315 315 315 314 314 315 314 314 314 315 315 315 316 317 316 315 316 316 315 316 322 325 325 326 327 328 329 329 328 328 329 330 330 329 330 330 330 330 330 331 331 332 332 333 333 333 333 333 333 333 334 335 333 332 331 330 329 326 325 326 327 327 327 326 326 326 325 322 322 327 326 322 324 328 327 327 326 323 322 321 319
317 318 316 316 317 315 315 316 315 315 316 315 314 313 314 315 315 315 316 315 315 316 317 316 318 323 325 324 326 327 328 328 328 328 329 329 330 329 329 328 329 329 329 330 330 330 331 331 332 332 333 333 333 333 333 333 334 333 332 330 330 330 328 327 327 326 326 327 326 325 325 324 320 322 327 325 321 325 328 326 326 324 319 321 323 322
318 318 316 316 318 317 316 318 317 317 318 316 316 316 315 315 314 314 316 317 316 315 317 316 318 323 325 324 325 327 328 329 328 329 329 329 328 327 326 326 326 327 328 328 329 329 329 330 330 331 332 332 333 333 332 332 332 331 330 331 331 330 329 328 327 325 326 326 324 324 324 322 321 322 325 322 319 325 327 325 324 322 319 322 324 324
318 318 317 317 318 317 317 318 318 317 317 317 317 317 317 316 316 316 317 319 318 315 317 318 319 323 325 324 326 328 328 328 327 327 327 327 325 324 323 323 324 325 325 325 326 326 327 328 328 329 331 331 331 332 331 332 331 330 330 331 331 330 329 328 326 325 325 324 324 324 323 322 323 323 324 321 320 325 326 324 323 322 322 324 324 325
317 318 318 317 318 318 318 318 320 318 316 316 317 319 319 317 318 319 317 319 319 316 316 318 320 324 325 324 326 327 326 326 325 324 323 323 323 322 321 321 322 322 322 323 323 324 325 325 326 327 329 330 330 331 331 331 330 330 330 330 331 330 329 329 327 325 324 324 324 323 321 323 325 324 323 321 322 326 326 324 325 324 325 326 325 325
317 319 319 318 318 319 319 318 320 320 318 318 319 320 321 319 318 320 318 318 319 317 317 318 321 324 324 324 326 325 324 323 323 322 321 320 321 321 320 319 320 320 321 321 321 321 322 323 324 325 327 328 328 328 329 330 329 330 330 330 330 330 329 329 327 324 325 325 323 322 323 326 326 324 323 323 324 326 325 325 326 326 326 326 325 323
319 320 320 320 320 320 319 318 318 318 319 321 322 321 321 321 321 322 319 318 319 318 319 321 323 325 325 324 325 325 322 321 320 319 319 319 320 320 319 318 318 319 319 318 318 319 320 321 322 323 324 326 327 327 327 328 327 329 329 329 330 330 330 329 325 325 327 325 322 324 327 328 326 322 322 325 325 324 325 326 327 326 326 325 323 322
320 321 321 321 321 320 319 319 317 318 319 321 322 322 323 323 324 324 321 321 322 319 319 322 324 326 325 324 323 322 320 318 317 317 317 317 318 319 319 318 318 318 317 317 316 316 319 320 321 322 322 324 326 326 326 327 327 328 329 329 330 330 329 327 325 326 326 323 322 326 327 327 326 323 322 326 327 326 327 327 326 325 325 323 321 319
320 320 321 321 320 320 320 319 318 318 319 320 321 321 322 324 324 324 324 325 324 322 322 324 326 325 323 321 319 319 318 316 315 315 315 315 316 317 318 318 317 316 316 315 313 314 316 317 318 319 320 322 324 325 325 326 327 328 328 328 329 329 327 326 325 326 326 324 324 326 326 325 324 323 324 326 326 326 327 327 325 324 323 321 320 319
318 318 321 321 320 320 320 319 318 317 318 319 319 319 320 322 323 322 322 323 322 323 324 325 324 321 318 317 316 316 317 316 314 314 313 313 314 314 315 316 315 314 313 312 311 311 312 314 315 317 318 320 322 323 324 325 326 327 327 327 328 329 328 327 327 327 327 326 325 325 324 323 322 324 325 325 325 326 326 325 324 322 320 319 319 319
316 317 320 320 319 319 320 319 318 318 319 319 318 317 318 320 321 320 320 320 321 323 323 323 323 319 315 315 315 314 315 314 312 311 311 311 311 311 312 312 312 311 311 310 309 309 311 313 314 315 316 317 319 321 323 324 325 326 326 327 327 328 328 327 327 327 326 326 325 325 323 323 325 325 322 322 324 326 325 323 321 320 318 319 320 319
316 317 319 319 318 319 319 319 319 319 320 319 317 315 316 317 319 319 319 317 318 321 321 322 322 319 314 314 313 312 312 312 310 309 309 308 308 308 309 309 309 309 309 309 308 308 309 312 312 312 313 315 316 319 321 322 323 324 325 325 325 326 326 327 326 325 325 325 326 326 325 324 325 323 322 324 325 325 325 322 320 319 319 319 320 320
315 315 316 318 317 318 319 320 319 320 320 319 315 313 314 315 316 317 317 315 315 317 318 320 320 317 315 314 313 311 310 309 308 307 307 307 307 306 307 307 307 308 308 307 307 306 307 308 310 310 311 312 314 317 319 321 322 323 323 323 323 323 324 325 325 325 325 325 325 325 325 325 325 324 324 325 324 324 324 321 318 317 318 318 317 318
316 315 315 315 314 317 319 319 319 321 320 316 312 311 313 314 314 315 315 313 312 314 315 315 315 314 313 313 310 308 307 306 306 305 305 306 306 305 305 306 306 306 306 306 305 305 305 306 307 308 309 310 312 314 317 319 321 321 321 321 322 322 322 323 323 323 324 323 323 324 324 323 323 323 324 324 323 323 320 317 316 316 316 316 316 316
315 315 315 313 312 316 318 317 320 321 316 312 311 310 311 312 312 313 313 311 310 311 312 312 312 310 310 309 307 306 305 304 304 304 304 305 305 305 305 305 305 305 305 304 304 304 305 306 307 308 310 311 311 312 315 317 318 319 320 320 320 321 321 321 321 322 322 322 321 321 321 321 321 322 322 321 320 318 315 313 314 315 315 315 315 316
315 314 314 313 313 315 316 318 320 317 312 311 311 310 310 311 311 312 313 310 307 308 310 310 309 308 308 307 306 305 305 304 304 303 303 304 304 304 304 304 304 304 304 304 303 303 303 304 306 308 309 311 311 312 313 314 315 317 318 319 319 320 320 320 319 319 320 320 320 320 320 320 320 320 319 319 318 317 315 314 314 315 315 315 316 316
316 315 314 314 314 315 316 317 315 314 313 312 310 309 309 309 309 310 312 310 307 307 308 308 307 306 306 306 305 305 306 306 305 303 303 303 303 304 304 304 304 303 303 303 303 303 303 302 303 305 307 309 311 311 312 313 315 317 317 318 319 319 319 320 319 318 318 318 319 318 317 317 318 319 318 318 318 317 317 317 316 317 318 317 317 317
316 316 315 315 315 315 316 315 315 316 315 311 309 309 308 308 308 308 310 310 307 307 308 307 307 306 305 305 306 306 308 308 305 302 302 303 303 303 303 303 303 303 303 303 303 304 303 303 303 303 304 306 307 308 309 311 313 315 316 317 317 317 318 318 317 317 318 318 318 318 316 316 318 319 318 318 318 318 318 319 319 319 319 318 318 319
315 315 314 314 315 314 315 316 316 316 314 309 308 308 308 309 308 308 311 311 307 306 307 307 307 306 306 306 307 307 309 309 304 301 302 303 303 303 303 303 303 303 303 304 304 304 304 305 305 305 305 305 305 305 306 307 309 310 311 312 313 314 315 315 314 315 315 315 316 317 317 317 318 318 318 318 319 318 318 318 317 318 317 317 317 317
315 314 313 314 314 314 315 315 313 312 310 308 307 308 309 309 308 311 316 313 307 306 306 306 306 307 306 307 307 306 306 306 303 301 301 301 302 302 303 303 302 303 302 302 302 302 302 303 303 304 304 304 305 305 306 306 306 306 305 306 307 307 308 308 308 310 311 312 313 314 314 315 315 315 316 316 316 316 316 316 316 316 316 316 316 315
312 312 312 313 314 313 314 314 311 309 308 306 307 309 309 309 310 313 314 310 306 306 306 305 306 306 305 306 305 303 302 302 301 300 300 300 301 301 301 301 301 301 301 300 300 300 300 300 300 300 300 300 302 304 305 306 307 306 305 304 304 304 303 303 303 303 304 306 307 308 308 309 309 310 310 311 311 311 312 311 311 311 310 310 310 309
311 310 311 312 313 313 313 312 312 310 307 306 308 309 309 310 312 310 308 306 306 305 305 304 304 304 303 303 302 301 300 300 300 300 300 300 300 300 300 300 300 300 300 300 300 300 300 300 300 299 299 298 298 299 300 303 305 305 305 305 303 301 301 301 302 302 302 302 302 302 303 303 303 303 303 303 304 305 304 303 303 303 303 303 303 302
309 310 311 310 311 313 312 312 312 311 307 306 308 308 307 308 308 306 305 305 305 303 303 303 302 301 301 301 301 301 301 300 301 300 300 300 300 300 300 300 300 301 301 300 300 300 301 301 301 300 300 299 299 299 298 299 300 302 303 303 302 300 300 300 300 300 300 300 300 301 301 301 302 302 302 300 300 300 300 300 300 299 300 300 299 299
308 310 311 309 309 311 311 309 309 308 305 306 307 307 306 305 305 305 306 305 304 303 303 302 301 301 301 301 301 301 301 300 301 300 300 300 300 300 300 300 300 300 300 300 300 299 299 299 299 299 298 298 299 299 299 299 298 298 299 299 299 299 300 300 300 300 299 298 298 298 299 299 299 300 300 299 299 299 299 298 298 299 298 298 299 300
308 308 309 308 307 308 308 306 306 306 306 306 306 306 306 305 305 305 305 304 303 303 302 302 301 301 301 301 301 301 300 300 300 300 300 300 300 300 300 300 300 300 299 299 299 299 299 298 297 297 297 297 297 297 298 298 298 298 297 297 297 297 298 298 298 299 298 298 297 297 297 298 298 298 298 298 298 297 298 298 298 298 298 299 300 302
308 308 308 307 306 306 306 306 306 307 307 306 306 306 306 306 306 305 304 303 303 302 302 302 301 301 301 300 300 300 300 300 300 300 299 299 299 300 300 300 300 300 300 299 299 299 299 299 298 297 297 296 296 296 296 296 297 297 297 297 297 297 297 297 297 297 297 297 297 297 297 298 298 298 298 299 299 299 299 300 299 299 300 302 302 303
308 308 308 307 307 307 307 307 306 307 307 306 306 306 306 306 306 305 304 303 303 302 302 301 301 300 300 300 299 300 300 300 300 300 300 300 300 301 301 300 300 300 300 300 300 300 300 299 299 299 298 297 297 297 296 296 296 296 296 296 296 296 296 297 297 297 297 297 297 297 297 298 299 299 299 300 301 301 300 301 302 302 302 303 304 304
307 308 307 307 306 307 307 306 306 306 306 306 305 305 305 305 305 304 304 304 303 302 302 301 301 300 300 299 299 299 299 299 300 300 300 300 300 301 301 300 300 300 300 300 300 300 300 300 300 300 299 299 299 298 297 297 297 297 296 296 296 296 296 296 296 296 297 297 297 297 297 298 300 301 300 299 299 298 298 299 301 302 300 299 300 302
307 306 306 306 305 305 305 305 305 305 304 304 304 304 304 304 304 304 303 303 303 303 302 302 302 301 301 300 300 300 300 300 300 300 300 300 300 300 300 300 300 300 300 300 300 300 300 300 300 299 299 299 299 299 299 299 299 299 298 296 296 296 296 296 296 296 296 296 297 297 298 298 300 301 302 301 299 297 297 297 298 298 298 297 297 298
307 306 306 306 305 305 305 306 306 305 304 304 304 304 304 304 303 303 303 302 303 303 303 302 302 302 301 301 301 301 301 300 300 300 299 299 299 299 300 300 300 300 300 300 300 300 300 300 299 299 299 299 299 299 299 299 299 299 299 299 298 298 298 299 299 298 298 297 297 298 299 300 300 301 301 302 301 300 298 298 297 297 297 297 297 298
307 307 307 306 305 305 305 305 305 305 304 304 304 304 303 303 303 303 303 302 302 302 302 302 302 302 302 301 301 301 300 300 299 299 298 297 297 298 298 299 300 300 300 300 300 300 300 300 299 299 299 299 299 299 299 299 299 299 299 299 299 299 300 300 300 300 299 298 297 298 299 300 300 300 301 301 301 301 300 300 299 298 298 298 298 298
Wind_Speed
10 7 8 9 9 11 13 13 15 13 6 8 8 6 8 8 7 7 4 4 2 6 8 9 11 11 13 12 13 15 12 12 13 16 16 16 20 16 16 17 14 15 16 15 15 16 17 17 15 16 15 14 14 12 14 20 23 25 26 23 22 23 23 25 25 24 24 22 21 20 17 18 19 18 17 16 16 16 15 12 11 13 13 12 13 12
9 8 9 11 12 12 11 12 15 11 5 6 9 8 8 9 9 6 5 4 3 5 8 10 11 12 12 12 12 15 14 11 12 15 17 18 21 20 16 19 19 19 17 15 15 16 18 19 18 17 17 16 17 16 18 24 25 24 26 25 25 26 27 27 26 23 22 23 22 21 20 19 19 18 16 16 15 15 16 15 13 13 13 12 13 12
8 9 11 12 11 8 7 7 9 8 6 8 9 8 9 8 9 6 6 5 5 5 8 9 10 10 9 11 12 14 15 13 14 16 18 19 20 20 18 17 18 18 17 15 15 16 19 22 20 18 18 17 18 19 21 25 26 25 25 25 25 28 29 28 25 20 19 22 21 21 21 20 19 17 16 15 14 13 14 15 13 12 13 12 11 11
7 8 13 14 8 5 6 6 6 7 7 9 8 8 9 10 12 8 5 5 6 6 8 9 9 9 9 11 13 15 17 17 17 18 19 20 20 20 19 17 17 18 17 15 16 18 21 23 22 19 18 18 19 21 23 25 27 27 26 24 24 26 27 25 22 20 19 19 18 20 20 18 17 16 15 15 15 13 12 13 13 12 13 11 9 9
9 3 5 9 7 7 9 9 8 8 7 10 11 10 9 11 14 8 4 5 5 7 10 11 9 9 11 13 14 15 17 18 18 18 18 20 21 19 18 17 18 19 19 19 19 22 23 24 24 21 20 21 22 24 25 26 27 26 25 24 24 24 24 22 20 21 22 21 21 21 20 19 18 16 16 16 16 15 13 13 13 12 12 10 9 9
12 3 4 5 6 8 10 9 10 9 7 9 11 14 14 13 14 9 8 9 6 8 11 12 10 7 10 15 15 12 13 15 16 17 18 19 20 18 18 18 19 19 20 23 23 23 24 25 25 23 21 23 25 25 25 25 25 25 23 23 24 23 24 23 22 24 25 26 25 24 23 22 20 18 19 18 16 15 14 13 12 11 10 10 9 9
10 7 8 8 8 9 12 9 11 11 7 8 8 11 13 12 12 11 12 10 7 7 4 6 8 7 8 12 11 8 11 14 14 14 17 17 18 19 20 20 21 21 21 22 23 22 22 23 24 25 23 23 24 24 23 21 22 24 24 23 24 24 25 25 24 26 27 26 25 24 24 23 21 21 21 18 15 14 13 11 11 11 11 10 10 10
9 6 6 9 10 9 10 8 10 11 8 9 6 4 8 10 11 11 11 9 8 9 4 5 9 9 8 11 9 8 10 11 10 12 14 12 11 11 12 14 18 21 22 22 22 21 22 23 24 24 22 20 19 20 19 18 19 23 25 24 24 25 25 26 26 27 27 26 27 27 25 24 24 22 21 18 16 15 13 12 12 11 11 11 10 10
9 11 7 9 10 8 9 8 10 11 10 10 4 2 7 9 10 9 9 9 8 9 8 9 11 9 8 10 12 11 10 10 12 9 6 3 3 5 9 12 14 18 19 20 20 18 20 24 22 19 21 21 18 16 17 16 17 22 25 25 26 25 25 26 25 27 27 26 27 27 25 24 23 21 19 18 16 15 15 15 14 12 11 11 11 10
7 10 9 10 10 7 9 8 7 9 9 9 5 4 8 8 9 9 9 9 9 9 10 11 11 9 8 8 10 10 7 9 9 1 5 4 4 5 10 14 16 18 16 17 18 17 20 23 20 18 20 21 20 20 19 16 15 19 21 24 26 25 25 25 26 26 27 26 25 24 23 21 20 19 19 18 17 15 16 16 14 13 12 12 11 11
5 5 5 8 9 9 10 10 10 11 10 6 4 6 9 8 9 9 7 8 9 9 11 14 15 12 8 7 6 3 1 1 1 5 4 2 4 7 9 13 18 18 14 16 17 18 18 17 18 20 21 21 24 26 24 20 19 18 19 21 25 25 24 24 25 27 27 26 23 22 22 20 18 19 20 20 19 17 16 15 14 13 12 11 11 12
7 7 5 8 11 11 10 10 11 11 11 8 6 7 8 8 8 7 7 8 8 9 10 13 15 13 9 7 1 5 7 7 6 4 2 2 3 9 10 12 14 12 10 14 14 14 15 15 17 21 23 25 28 29 27 24 23 21 20 21 22 23 23 22 23 25 26 25 23 21 22 21 19 19 21 21 20 18 17 16 14 13 12 11 10 11
10 9 9 10 13 13 9 8 8 8 9 9 8 8 8 7 7 7 7 7 7 9 9 8 9 9 8 4 2 6 6 6 6 6 7 6 5 9 8 6 6 4 5 9 10 11 13 15 17 19 22 26 29 30 28 25 25 24 23 22 21 21 23 22 20 22 25 26 24 23 22 22 21 21 22 22 22 20 18 17 16 14 13 11 11 10
9 10 11 11 11 13 12 8 7 8 9 10 9 8 8 7 7 7 7 7 7 8 9 7 5 7 7 0 5 6 5 5 8 9 7 6 6 7 3 2 3 5 5 8 11 12 12 14 16 16 18 21 24 27 27 25 24 25 25 24 22 20 21 22 18 20 26 26 26 27 25 23 22 22 22 22 22 21 19 18 17 15 13 12 11 10
9 8 11 12 9 13 15 12 9 7 9 10 10 9 8 7 6 6 6 5 6 6 8 8 6 7 7 3 5 6 8 8 7 6 2 1 2 4 1 2 3 6 6 7 9 9 10 11 13 14 14 16 18 21 24 25 23 23 23 22 21 20 20 20 17 17 21 23 26 28 26 24 22 21 21 21 22 21 18 18 16 14 12 11 11 10
11 7 8 12 11 12 14 14 12 10 8 9 9 9 8 7 6 6 6 5 5 5 5 6 5 6 1 7 6 6 8 6 3 3 2 4 4 3 4 5 3 5 7 7 6 7 7 8 9 11 11 13 15 17 20 22 21 21 20 19 21 21 18 17 17 18 19 21 25 27 26 24 22 21 21 20 21 20 18 17 16 13 12 11 11 10
9 6 6 11 12 11 13 14 13 12 7 5 8 9 8 8 7 6 7 6 5 7 6 5 6 6 3 6 6 6 6 5 5 4 5 6 6 6 7 7 5 4 5 5 5 5 6 7 8 9 10 12 14 16 17 18 20 21 20 20 22 22 19 17 16 18 21 23 26 27 25 22 21 21 21 21 22 20 19 18 15 13 12 11 11 11
6 5 6 10 11 11 12 13 14 15 11 6 5 7 7 9 8 5 5 6 6 7 7 7 9 8 4 1 2 4 4 4 4 5 6 6 7 7 7 6 5 4 3 3 4 4 5 7 8 8 9 9 10 13 15 16 17 19 20 21 23 23 22 19 16 17 21 24 26 27 25 22 22 22 21 23 25 23 22 20 16 15 14 13 12 11
5 6 6 10 12 11 11 10 10 14 16 12 6 4 5 7 6 6 6 6 7 7 6 8 11 5 2 2 2 3 3 2 3 5 6 5 6 7 6 5 6 6 5 3 2 0 3 4 6 8 8 8 8 9 11 14 16 17 20 22 21 20 21 21 21 22 24 26 27 26 25 25 24 24 23 24 25 24 22 19 17 16 15 13 12 11
5 5 5 10 11 9 9 8 8 9 13 13 10 6 6 6 5 5 5 5 7 8 6 8 9 1 5 3 3 4 5 4 3 4 5 5 6 7 7 7 6 6 6 6 5 4 3 3 3 6 8 9 9 9 10 14 15 16 18 20 19 20 22 23 24 26 27 28 27 25 25 26 25 25 23 23 24 23 20 18 17 16 15 13 11 11
5 6 5 7 8 8 7 8 9 9 10 11 10 8 7 6 5 6 5 5 6 6 6 7 5 1 4 2 2 4 5 4 3 5 5 6 9 8 8 8 8 8 8 8 7 6 5 3 2 3 6 8 9 9 10 12 15 17 18 19 20 23 26 27 27 29 30 31 30 28 28 27 27 26 22 21 24 23 19 18 17 15 14 13 11 11
4 6 6 4 6 8 6 8 11 10 8 9 9 9 10 8 7 7 6 6 6 5 6 7 2 1 2 3 3 4 4 4 5 6 6 8 10 10 10 12 13 12 10 10 8 7 6 4 2 1 2 5 8 9 11 12 13 15 16 17 21 24 27 29 31 31 32 33 32 32 31 29 28 26 22 23 26 22 19 19 18 16 14 12 11 10
3 4 6 6 7 6 6 7 7 6 7 8 8 8 9 8 8 8 6 5 7 6 6 8 4 4 1 1 3 4 5 6 8 7 8 10 10 10 12 13 14 14 12 11 10 9 8 5 2 1 1 3 5 7 11 13 13 14 15 16 19 24 27 30 33 33 34 34 34 33 33 30 27 25 25 26 26 22 20 20 18 16 14 12 12 11
3 4 7 7 6 6 6 7 6 7 7 8 8 8 8 9 8 8 4 3 7 6 4 6 4 3 3 2 3 5 7 9 11 12 11 10 9 9 11 11 12 13 12 11 11 10 9 8 5 1 2 3 4 6 9 11 13 14 15 16 17 21 27 31 34 35 35 35 35 33 32 29 26 24 25 27 25 21 20 19 17 17 15 12 12 11
5 5 7 7 6 7 7 6 7 8 7 7 8 4 6 8 10 7 2 2 6 8 7 6 3 2 3 3 5 6 7 8 11 13 12 10 9 9 9 10 11 11 11 11 10 10 10 10 9 6 2 3 4 6 8 10 13 13 14 15 17 20 25 29 32 36 35 35 36 34 31 28 25 24 25 26 24 21 19 19 18 16 15 13 12 11
4 3 4 7 7 6 5 4 4 4 4 6 4 3 7 11 12 6 3 4 6 8 8 5 2 4 3 2 5 6 6 8 10 11 11 10 9 10 10 10 10 10 10 11 11 10 10 9 9 9 7 2 3 5 7 9 11 14 15 16 18 23 25 26 31 35 34 35 36 34 32 30 25 25 26 25 24 22 20 19 17 16 15 13 12 12
3 3 4 7 8 5 4 3 2 5 7 6 6 2 2 8 9 4 5 6 4 4 2 2 5 5 3 1 4 7 8 9 9 9 9 9 9 10 11 11 11 11 11 11 11 10 10 8 7 7 6 2 2 5 7 8 8 12 17 19 22 26 24 24 30 33 32 33 35 34 33 31 27 27 27 24 22 22 20 18 17 16 14 13 12 12
5 5 3 5 9 8 4 6 3 4 6 6 7 6 3 3 3 2 5 3 3 4 2 4 8 8 5 3 6 9 9 8 8 9 9 9 9 9 9 10 10 11 11 12 12 11 10 8 6 5 4 1 3 4 7 7 4 7 16 19 22 25 22 23 28 30 29 31 33 33 33 31 28 28 26 23 22 21 19 18 18 16 14 14 13 12
4 4 4 4 8 12 9 6 6 5 6 3 3 4 6 7 7 4 4 6 5 4 1 5 8 9 7 6 8 9 8 8 8 9 9 9 10 9 8 10 11 11 12 13 13 11 9 8 7 6 4 2 4 5 6 7 4 7 12 14 18 22 23 24 26 28 28 29 30 31 29 28 29 27 26 25 23 21 20 19 18 17 16 16 14 13
2 3 4 4 5 10 10 5 6 8 7 1 4 6 7 7 8 7 8 10 8 2 5 9 10 9 7 6 8 9 8 9 9 9 10 11 11 10 9 11 12 12 12 13 12 11 9 8 6 5 4 2 3 4 4 6 7 9 11 11 15 19 23 24 23 25 26 26 28 28 26 27 29 29 28 27 23 21 20 19 18 18 18 17 15 13
1 1 2 2 3 6 6 4 4 7 5 2 6 11 10 8 8 7 9 11 9 4 3 6 9 8 5 6 8 8 8 9 10 11 12 12 12 11 11 12 13 13 12 12 11 10 8 7 5 4 3 2 1 2 5 6 8 12 13 13 13 17 23 23 21 23 24 24 25 25 26 28 28 28 29 27 23 21 20 18 18 18 17 16 15 13
4 3 1 2 3 3 5 6 3 4 5 5 8 13 11 8 7 7 8 10 10 9 5 1 5 5 3 5 7 8 10 11 11 12 11 11 12 12 13 13 13 13 12 12 11 11 9 7 6 7 6 5 6 5 7 10 11 14 14 13 11 13 18 21 23 25 26 25 25 26 26 27 27 27 27 24 22 22 22 22 22 21 20 19 18 16
3 4 2 2 2 1 4 5 4 5 6 3 6 9 7 7 7 5 8 11 11 10 6 3 5 5 4 5 6 7 10 10 11 12 11 11 12 13 13 12 12 12 12 12 12 12 11 9 7 8 9 9 8 8 9 11 12 13 13 13 12 12 16 23 28 30 28 27 28 29 29 29 29 29 29 28 25 24 24 25 25 23 23 21 19 17
2 4 2 1 2 1 2 4 5 7 5 1 4 6 5 6 8 6 9 12 11 9 6 5 7 7 6 6 7 8 10 10 11 13 12 11 11 11 12 12 11 12 13 13 14 13 12 11 9 9 10 11 11 9 10 11 11 11 11 13 13 13 16 21 24 26 27 27 27 27 27 28 28 27 27 28 27 24 25 25 23 22 21 18 17 15
3 3 2 2 2 1 3 2 6 5 2 2 3 8 6 4 7 6 8 13 13 10 9 7 7 9 9 9 10 10 11 13 14 14 14 13 12 11 11 12 12 13 15 16 16 15 15 15 13 12 12 13 13 12 12 13 14 14 13 14 15 15 16 16 17 20 23 25 24 24 24 24 23 22 22 22 22 21 23 24 22 19 18 17 16 13
4 3 2 2 1 2 2 3 3 1 3 4 3 10 8 4 6 4 4 11 14 11 9 7 7 8 8 9 10 10 12 13 15 17 16 14 12 11 11 12 12 13 15 16 17 17 19 21 20 18 16 15 16 17 18 18 17 18 19 19 19 18 17 17 18 21 22 22 21 21 21 20 19 19 19 19 18 16 17 19 19 16 15 17 17 14
3 3 3 3 3 2 1 2 3 4 4 4 5 8 8 5 6 4 1 6 11 11 10 7 5 6 6 7 8 8 8 9 12 15 16 14 13 12 11 12 12 13 15 15 15 16 18 23 25 24 22 20 19 19 20 20 20 19 20 20 20 19 17 17 19 21 21 20 20 20 18 16 16 17 16 17 17 15 13 14 15 15 15 17 16 14
1 2 2 3 4 3 2 4 5 5 3 6 6 6 7 5 5 4 1 3 9 12 11 6 4 5 5 6 5 2 1 2 5 9 13 13 12 11 11 12 12 13 15 15 14 14 17 21 24 25 25 25 24 22 20 19 20 21 21 20 20 20 18 17 18 18 18 18 19 18 16 13 13 14 15 16 17 16 14 13 14 15 16 16 16 15
2 3 1 2 4 4 4 3 2 2 3 5 7 7 8 5 2 3 3 2 8 13 11 7 5 5 5 4 4 5 4 0 3 6 11 12 12 12 12 12 14 15 16 16 16 17 18 19 20 21 22 23 23 22 20 19 20 22 23 22 21 22 21 19 18 18 17 16 15 16 16 14 14 15 16 17 16 16 16 15 15 16 15 15 14 13
3 4 3 4 5 3 3 2 3 4 4 7 9 8 7 3 2 3 2 3 8 11 9 7 5 5 4 4 7 8 5 3 4 5 8 9 11 13 13 15 17 19 20 19 20 20 20 20 20 20 20 21 19 18 17 17 18 22 24 23 23 23 23 21 19 18 17 16 15 15 15 14 14 14 15 16 16 15 15 15 14 14 14 13 12 11
2 1 2 4 3 2 4 5 4 3 3 9 10 8 6 2 3 1 2 3 7 9 9 8 6 6 7 8 8 8 8 9 9 8 9 13 15 16 18 19 20 21 20 20 20 20 21 22 23 23 23 22 19 17 15 13 14 18 20 20 21 22 21 19 19 18 17 16 15 14 14 13 13 13 13 14 14 14 13 12 12 11 10 9 9 8
2 1 1 1 1 2 6 6 5 5 6 13 12 7 6 3 2 2 4 4 7 8 9 10 9 8 9 12 14 13 13 13 12 11 12 15 18 18 19 19 20 19 18 17 16 16 17 18 20 21 22 21 21 20 17 14 13 14 15 16 19 20 18 16 16 16 15 14 14 13 13 12 11 11 11 11 12 12 11 11 10 9 8 7 7 6
4 1 3 3 3 1 6 6 4 3 7 16 12 4 7 6 2 2 3 6 8 8 9 11 12 11 13 16 16 16 15 14 13 13 14 14 15 15 15 15 16 16 15 14 14 15 15 16 17 17 18 18 18 18 18 16 15 15 14 15 17 17 16 15 15 13 13 12 12 12 11 10 10 9 9 9 9 9 9 9 8 8 7 7 6 6
5 3 2 3 4 2 5 6 3 1 7 14 10 5 6 6 4 2 3 7 9 8 10 13 13 13 15 17 17 16 16 15 14 14 14 14 13 14 14 13 14 15 14 13 13 14 16 17 17 16 16 16 15 15 15 16 16 16 16 17 16 15 14 14 13 13 12 10 10 11 10 9 8 7 6 7 8 7 7 7 7 6 5 5 5 4
6 7 9 8 6 7 7 6 5 5 7 12 13 11 9 9 8 8 9 10 10 9 11 13 14 15 15 17 18 18 17 16 15 14 13 12 11 10 11 11 12 14 14 13 13 14 15 16 16 16 15 15 14 14 14 14 13 14 15 15 15 14 14 12 11 11 10 8 8 9 9 9 8 7 7 7 7 7 7 6 6 6 5 4 5 5
8 11 11 9 10 12 13 11 11 13 14 15 15 15 15 13 12 12 13 13 12 12 12 13 15 15 15 15 16 16 14 14 14 13 13 13 11 9 8 8 9 11 11 11 12 13 14 15 15 15 15 15 14 14 14 13 12 13 13 12 11 11 11 10 10 9 9 8 7 7 8 9 9 8 9 9 9 8 7 6 6 5 6 5 4 4
9 10 9 7 8 8 8 10 13 15 16 17 17 18 18 17 16 15 15 15 15 14 15 15 16 16 16 16 16 15 13 11 10 10 10 10 9 8 7 7 7 7 7 8 8 9 11 12 13 14 15 15 14 13 13 13 13 12 12 12 11 10 9 9 8 8 8 8 7 7 7 7 8 8 8 8 7 6 5 6 7 5 3 4 4 4
8 9 9 9 10 9 9 12 15 17 17 16 16 16 17 17 17 17 16 17 16 16 15 15 15 14 15 15 15 14 13 11 10 9 8 8 7 6 6 7 6 6 5 5 5 7 8 9 10 11 12 13 12 12 11 12 12 11 10 9 9 9 8 7 7 7 6 6 5 6 6 7 8 8 6 4 4 3 3 5 5 3 1 3 4 4
8 9 10 11 11 10 11 13 14 14 14 15 15 16 16 16 16 16 16 16 16 15 14 13 13 13 12 12 12 12 11 10 10 9 9 8 7 6 6 5 4 4 4 3 4 5 6 6 7 9 9 9 10 10 10 10 10 10 9 8 8 7 7 8 7 6 5 4 4 6 7 7 8 8 7 5 5 5 5 4 3 3 2 1 2 3
8 7 8 9 8 7 7 8 8 8 10 11 13 14 14 14 14 15 14 14 13 13 13 13 12 11 10 9 9 9 9 8 8 7 7 7 6 5 4 3 2 2 1 1 2 3 3 4 5 6 6 7 7 8 8 9 9 9 9 8 8 8 8 8 8 7 6 4 4 6 7 7 7 7 7 5 5 7 9 8 7 6 5 4 2 2
9 6 5 7 8 8 9 9 9 11 11 12 12 12 12 12 12 12 12 12 11 10 10 11 10 9 8 8 7 7 7 7 6 6 5 5 5 4 3 3 2 1 0 1 1 1 1 1 2 3 4 5 6 6 7 7 7 8 8 8 8 8 8 7 7 6 7 6 5 7 7 6 6 6 6 5 5 6 8 9 10 10 10 8 5 3
Wind_Direction
199 212 212 217 226 215 218 224 238 258 298 307 288 263 255 256 248 242 191 144 200 256 247 248 253 255 258 255 257 255 229 206 224 237 230 226 237 220 166 169 197 219 223 210 199 200 202 198 197 201 194 190 193 189 193 193 192 191 187 187 193 199 204 201 199 198 195 195 196 190 189 195 190 182 181 185 189 180 173 176 178 181 181 186 191 186
201 225 227 221 232 230 226 227 237 263 301 270 266 267 254 249 253 238 165 171 209 242 253 253 252 251 253 255 257 259 251 220 214 233 234 228 235 233 198 181 195 210 211 205 200 198 198 196 196 200 197 195 189 185 190 191 194 192 188 194 197 201 206 203 200 197 193 195 196 194 196 197 189 184 186 187 186 182 178 178 182 185 184 193 200 195
208 233 236 231 235 234 245 245 232 245 256 250 254 260 257 247 247 222 150 179 218 236 256 255 258 260 255 256 254 252 254 241 222 228 236 233 234 235 224 205 200 204 200 199 205 200 195 195 198 199 199 200 192 189 191 189 192 190 191 200 204 205 204 200 200 196 192 196 197 200 202 195 190 189 188 186 184 179 184 188 186 185 186 193 201 201
218 224 227 228 221 206 228 237 229 232 237 245 247 247 249 244 248 238 174 190 208 232 266 275 274 270 263 259 256 250 249 246 232 225 231 234 234 235 231 219 208 203 191 190 210 208 194 191 196 198 198 195 190 196 196 189 191 192 194 203 208 209 205 199 200 196 193 193 193 202 202 190 188 185 178 183 182 173 183 190 182 185 192 192 196 201
248 238 209 216 185 188 220 217 221 235 230 230 238 248 252 250 256 255 227 228 226 235 249 261 269 263 253 248 247 241 234 237 236 227 225 229 232 234 233 227 218 209 190 186 207 212 202 197 197 195 192 192 195 201 197 187 190 195 198 203 205 208 207 202 200 198 194 187 187 195 189 181 182 178 179 185 180 175 182 184 178 186 194 192 193 196
250 213 135 214 189 201 227 218 214 226 239 229 223 236 248 260 272 270 265 265 257 253 239 234 250 258 247 245 242 235 222 219 223 229 229 225 226 230 231 228 224 218 197 189 201 209 211 206 199 191 184 189 196 198 196 189 191 195 197 201 202 205 208 205 201 202 199 190 190 192 184 180 179 177 186 188 180 181 184 180 179 183 189 191 190 189
246 192 159 220 222 217 228 222 213 212 237 247 220 227 237 253 270 264 263 263 253 270 259 212 251 272 262 256 242 232 242 227 208 218 231 226 224 227 228 226 224 222 208 196 197 204 213 212 203 193 183 185 190 189 191 191 194 199 199 199 204 207 208 206 204 205 201 192 192 194 190 188 184 183 189 187 182 184 178 173 177 180 183 186 186 187
238 211 170 218 223 221 226 222 214 207 227 245 222 223 238 243 253 251 251 254 255 269 259 200 244 268 270 272 257 226 240 245 223 217 223 226 235 241 245 238 228 228 218 199 191 197 209 213 208 195 182 177 176 178 188 193 197 205 205 202 205 209 209 208 207 204 199 193 191 191 191 191 188 188 189 184 182 182 173 171 176 178 180 180 183 188
199 215 201 211 218 221 224 222 213 206 227 251 243 224 254 255 255 255 251 249 252 259 256 235 239 255 258 264 266 240 215 231 242 225 196 203 282 305 302 281 251 239 225 194 184 197 208 209 204 194 184 176 171 179 198 202 200 207 209 207 207 209 210 208 206 203 200 196 189 185 186 187 184 184 188 183 179 179 175 175 175 173 175 177 180 184
179 212 213 210 218 222 222 225 215 201 221 256 273 235 246 260 255 254 255 253 252 247 255 255 245 254 260 254 263 253 219 227 242 162 71 25 333 310 295 286 268 249 223 183 179 200 208 202 198 201 199 191 189 197 203 202 203 210 212 211 210 211 211 209 205 201 199 195 191 187 184 181 179 181 183 177 172 176 177 175 172 169 171 176 180 185
161 163 214 225 225 229 226 224 220 215 221 245 274 244 236 239 239 243 247 254 258 244 243 253 251 253 262 258 260 258 81 18 44 76 67 8 304 270 249 249 253 246 210 175 180 194 195 189 190 204 211 202 197 201 203 201 203 210 214 214 214 214 213 210 205 201 198 195 194 191 185 179 178 181 179 172 169 175 174 169 168 167 167 171 180 187
191 163 205 225 225 234 235 226 219 217 224 229 236 242 236 227 227 232 234 236 247 250 246 250 250 247 250 257 285 70 59 39 43 57 55 60 287 263 237 221 233 235 193 175 186 188 180 173 181 198 207 202 198 200 203 203 204 207 211 215 218 219 218 216 209 201 194 193 195 192 188 184 179 175 173 172 173 172 167 165 164 165 167 170 182 188
215 206 207 201 211 225 228 221 209 205 220 225 224 233 237 229 223 227 231 227 230 246 253 259 256 248 248 253 89 81 61 39 48 39 15 7 308 267 241 211 212 199 154 169 191 192 176 170 176 188 196 197 198 200 201 203 206 207 209 214 219 222 221 220 214 198 184 184 189 190 190 190 186 177 171 171 172 167 164 166 166 167 171 174 182 185
216 215 208 198 198 207 217 221 201 193 208 216 218 223 229 229 224 229 236 235 238 244 244 244 247 251 255 219 91 93 78 65 70 57 25 357 313 282 249 167 162 153 150 179 194 192 176 168 173 182 188 193 197 199 201 203 205 206 207 209 211 214 220 223 217 196 183 181 184 185 185 188 188 179 173 171 167 162 163 167 168 169 170 172 179 181
225 220 206 206 192 187 207 227 225 210 206 211 221 228 233 238 237 241 247 246 252 254 235 216 218 258 257 133 96 74 61 49 55 69 75 90 326 313 36 112 155 157 168 191 185 172 168 168 171 180 188 196 200 199 201 200 199 202 202 198 199 207 219 223 213 191 183 181 182 183 182 186 186 176 171 170 164 162 164 166 167 167 167 171 172 172
237 236 196 204 207 193 201 221 235 239 221 204 216 229 233 237 238 249 269 283 285 280 251 214 223 262 212 107 96 85 86 78 80 103 103 84 65 44 78 97 117 134 154 176 170 159 171 174 176 189 202 208 204 199 198 196 193 194 190 186 192 201 211 216 207 191 183 182 183 183 181 181 181 172 167 166 163 163 165 165 165 162 164 168 164 169
231 236 190 197 210 211 209 212 221 237 243 204 208 225 228 231 239 247 256 261 260 263 259 240 242 239 165 91 60 72 100 118 123 105 80 75 76 70 67 70 78 96 130 157 163 165 176 182 187 198 211 212 204 201 200 195 192 190 186 186 190 194 199 207 206 191 182 182 185 185 183 180 177 171 167 167 165 164 165 164 162 161 164 165 163 176
238 244 198 195 207 215 219 221 215 218 234 234 219 226 225 226 238 248 250 243 236 247 252 244 247 243 212 160 61 71 79 87 95 90 82 78 78 77 68 59 58 54 63 128 150 168 184 192 198 202 208 211 207 203 196 191 194 191 189 194 194 192 194 197 200 191 180 182 186 186 184 181 177 172 171 175 174 170 167 164 162 164 166 165 169 185
236 242 202 209 219 204 202 226 223 209 217 233 245 247 239 236 230 222 229 237 237 242 246 242 242 252 48 103 138 107 100 105 97 91 85 79 86 97 97 83 64 48 33 36 55 299 237 222 215 211 210 212 211 203 189 190 196 190 189 197 196 189 186 185 192 195 189 188 188 185 183 181 177 173 175 181 180 173 165 163 167 170 168 167 174 187
224 249 213 211 215 188 182 214 224 203 206 226 242 237 240 254 248 235 235 240 247 244 245 248 241 213 63 91 144 121 123 142 131 104 94 85 86 87 87 81 65 46 28 17 15 356 316 282 239 218 208 205 208 207 196 194 194 186 189 199 193 183 181 181 185 190 189 189 189 186 184 181 178 178 179 181 180 173 164 164 169 170 167 168 174 180
209 243 224 204 202 192 191 206 217 215 199 209 227 225 224 232 231 239 237 230 253 264 258 256 247 69 32 36 93 91 98 111 110 112 105 84 73 65 59 55 49 44 30 14 3 350 335 310 265 231 213 202 197 195 190 191 192 189 196 205 195 182 179 178 177 180 184 186 185 185 185 182 179 179 179 179 177 172 167 166 168 168 167 165 169 173
221 231 227 229 216 207 217 220 219 230 224 209 214 219 224 227 227 235 233 219 224 244 263 261 231 113 326 332 52 69 69 78 92 106 101 80 66 57 47 39 42 45 38 27 16 0 349 328 272 224 212 200 192 187 184 192 200 194 195 199 192 185 182 178 174 177 183 184 182 183 184 182 180 178 178 179 177 173 169 169 169 171 170 166 168 169
308 261 238 235 226 231 271 258 226 240 260 244 230 227 226 228 237 243 242 240 235 242 285 282 237 150 163 352 58 71 71 76 78 78 83 76 61 47 36 31 36 40 35 30 23 14 8 357 323 211 208 202 203 202 192 194 200 195 191 192 192 190 186 180 176 179 183 183 181 182 182 179 177 179 181 183 181 175 171 171 171 172 171 169 169 167
255 246 242 238 229 231 259 270 247 231 246 252 245 243 237 228 237 248 256 295 276 272 302 287 255 151 133 100 79 82 76 70 60 54 59 63 52 39 32 29 32 33 28 20 17 17 18 17 21 25 238 225 214 213 201 192 192 194 196 196 194 192 187 181 178 178 180 181 181 181 179 175 176 181 182 182 182 177 172 174 175 173 171 171 170 169
227 231 236 240 233 215 224 258 245 219 225 240 233 257 296 263 244 242 246 343 288 263 251 258 281 81 106 101 95 95 88 75 58 51 54 52 42 37 36 34 32 32 26 18 15 18 20 22 25 23 339 248 217 205 203 198 196 198 199 195 191 187 184 179 176 176 177 179 180 179 176 176 178 180 180 179 180 177 174 177 178 174 170 170 172 174
241 281 249 243 241 223 229 262 246 234 259 254 238 34 352 286 265 258 239 227 248 256 256 269 348 71 77 98 112 103 84 72 57 48 51 47 39 38 39 37 35 32 27 20 16 13 15 18 20 21 17 337 256 225 221 226 223 209 193 186 184 179 177 177 177 175 174 176 177 176 176 178 179 178 178 178 179 179 177 176 177 174 170 171 173 175
235 255 231 242 257 236 191 188 274 313 311 311 315 333 245 262 273 283 254 243 255 266 263 73 90 99 71 40 100 79 60 57 49 39 41 41 36 38 42 42 39 34 28 23 18 10 5 4 3 11 20 14 248 232 234 257 266 224 195 181 179 179 178 180 180 176 173 174 176 177 178 178 177 179 181 179 181 182 177 174 175 173 170 173 176 174
244 245 241 268 284 279 212 157 127 315 306 325 324 303 291 323 337 282 256 284 339 280 245 105 118 127 102 53 62 62 53 52 48 39 37 37 34 36 41 42 39 34 30 26 23 16 7 356 345 346 360 321 204 217 235 258 288 218 196 182 177 180 179 178 180 177 172 173 176 180 183 178 173 178 183 182 180 177 173 175 176 170 167 170 172 170
261 276 328 337 316 303 277 197 167 225 258 291 331 328 342 8 29 13 344 14 6 292 241 106 118 116 90 62 56 55 52 55 53 45 41 41 37 34 35 36 35 32 28 25 22 19 14 3 349 346 356 305 235 239 247 247 235 203 197 180 173 177 175 173 177 175 171 175 179 181 182 177 174 180 187 188 183 175 173 175 169 162 165 166 163 162
299 300 336 356 333 306 286 243 210 226 234 278 16 14 3 9 31 29 11 9 3 11 97 103 101 82 61 57 56 52 56 62 58 47 42 40 35 32 34 34 33 30 26 24 21 18 19 14 1 355 2 331 267 254 236 228 224 215 205 185 172 173 172 171 173 170 169 176 181 181 181 179 178 184 189 190 184 176 174 173 166 165 168 164 158 157
228 203 58 28 325 309 296 277 241 226 200 120 36 29 22 13 22 29 17 11 8 18 91 122 109 81 59 64 62 55 57 58 52 44 39 36 32 33 36 35 31 28 26 24 21 19 20 16 12 15 17 29 60 167 175 178 200 205 201 193 180 171 172 171 166 166 173 179 180 182 186 186 184 187 189 186 180 172 166 163 160 159 158 156 155 154
234 238 165 252 274 311 291 265 224 190 171 124 48 29 25 19 22 32 34 27 12 354 338 140 107 89 97 91 75 63 57 52 45 39 35 33 33 35 36 35 32 31 29 27 24 25 27 26 30 39 42 61 85 119 141 144 166 182 181 180 171 161 165 160 148 156 174 181 177 174 179 183 184 185 182 174 168 165 165 165 164 161 160 163 163 156
248 262 243 254 275 270 268 256 204 193 200 156 46 19 16 22 23 38 50 37 17 4 359 20 53 69 113 108 84 67 55 48 42 35 28 28 32 36 38 36 35 35 34 32 31 31 34 37 40 47 54 65 80 108 130 137 158 169 161 156 148 139 143 141 139 147 159 167 169 171 175 178 178 176 174 171 169 169 173 175 173 170 169 169 167 161
260 256 222 182 250 247 353 329 243 221 220 146 34 12 12 25 23 39 52 36 21 17 17 21 37 47 61 69 71 71 63 57 52 43 34 34 34 36 39 38 36 39 40 39 39 40 44 49 55 63 70 73 76 96 124 138 155 162 153 147 145 143 143 139 138 144 148 151 159 167 172 173 173 174 177 179 180 179 178 175 168 167 169 168 167 170
220 235 213 194 232 116 61 333 246 228 173 136 51 25 28 30 19 35 59 42 26 15 14 27 44 43 53 71 80 84 79 69 61 51 42 41 41 40 43 42 41 45 47 46 47 51 57 63 70 78 85 89 86 91 113 128 138 142 137 133 134 139 142 137 134 143 150 152 156 161 164 169 175 180 179 176 173 173 174 171 165 165 171 174 180 196
213 210 209 203 187 139 159 209 225 169 125 137 54 23 24 21 7 14 67 43 25 10 9 25 43 49 66 85 90 97 95 80 64 51 42 41 44 46 48 49 50 55 59 57 56 58 64 69 74 75 79 90 98 101 107 113 119 125 123 120 119 118 116 114 117 128 141 147 148 148 148 153 161 165 163 161 161 163 168 172 174 181 191 196 204 215
232 214 214 219 207 197 164 105 125 158 133 83 35 14 13 360 347 344 46 44 25 11 5 12 41 61 72 90 102 114 112 89 64 44 34 37 45 49 55 60 62 65 68 67 64 63 69 75 77 77 75 78 86 94 101 108 112 113 112 112 113 113 112 115 117 120 128 135 137 138 140 148 158 163 166 171 177 185 190 188 192 201 202 198 199 200
283 231 244 255 232 212 148 126 149 178 133 50 23 7 3 344 324 320 273 68 27 11 5 9 42 74 95 109 106 115 222 85 62 33 27 35 44 49 59 68 73 75 74 75 75 75 77 78 78 78 78 76 76 77 83 95 106 110 110 110 111 112 115 120 120 119 123 129 133 138 144 156 169 172 174 175 178 185 188 184 184 186 181 177 178 181
181 194 183 284 247 226 202 182 133 125 96 35 6 350 347 337 286 265 227 94 22 8 14 26 40 74 112 109 45 356 321 10 89 41 30 39 51 57 64 71 75 78 77 77 79 77 76 78 78 78 77 75 74 75 75 81 90 98 102 104 105 107 108 110 111 112 114 116 120 128 137 146 156 161 162 162 162 166 168 168 171 174 174 174 177 182
179 190 206 241 242 234 202 159 69 74 66 13 348 335 340 336 215 226 226 51 17 7 18 31 43 62 59 22 18 18 18 69 101 66 41 52 63 66 72 77 79 82 81 78 76 74 74 76 75 74 72 68 68 70 73 77 83 88 92 95 96 97 98 98 98 100 103 107 110 114 119 127 137 143 146 149 150 153 158 162 164 167 168 167 164 169
114 168 231 226 197 114 120 117 91 92 44 356 337 336 350 310 212 226 346 2 4 9 19 26 37 42 29 30 50 63 68 82 97 95 82 86 86 81 82 84 83 84 82 78 74 70 69 71 69 67 66 66 65 63 61 65 74 79 86 92 93 91 92 96 99 100 101 105 108 109 110 113 118 123 127 132 135 139 143 146 147 149 152 150 147 155
37 7 342 250 226 133 128 117 107 110 33 350 331 336 359 326 213 56 25 12 18 25 33 38 45 55 62 74 86 92 91 90 93 94 91 94 94 92 89 86 80 74 67 65 66 64 64 67 66 63 62 61 62 62 58 59 65 68 74 82 83 82 85 91 97 101 104 107 110 112 115 116 117 119 122 126 130 133 135 136 139 141 147 151 156 167
357 336 80 50 344 66 106 87 87 110 12 350 336 341 10 12 82 77 34 50 50 48 55 59 63 75 85 91 94 94 93 91 89 88 87 88 88 86 84 82 80 77 67 57 56 55 56 60 61 58 57 57 60 61 59 60 65 68 70 72 71 71 75 78 81 85 91 98 103 105 108 110 112 116 120 123 127 131 134 138 143 146 152 158 161 169
350 330 85 45 343 16 78 61 53 82 9 8 24 61 42 42 79 76 57 72 67 62 70 74 79 86 91 94 94 91 89 88 87 87 87 84 81 79 77 74 75 78 76 66 56 51 52 56 58 57 57 56 59 62 62 62 63 65 68 70 68 66 65 65 67 70 74 79 87 93 96 98 104 111 114 116 118 120 123 128 131 132 136 138 132 128
48 66 80 67 50 61 78 91 101 94 62 48 58 71 72 74 78 72 75 78 72 72 81 85 88 91 94 95 93 89 88 88 85 84 84 82 80 78 75 71 68 70 72 70 64 58 55 56 57 59 60 58 58 61 65 67 68 69 70 71 70 68 66 63 62 64 67 69 74 84 90 89 91 100 106 106 108 110 111 113 120 124 120 111 108 104
102 98 87 84 92 87 85 94 97 88 81 76 73 74 77 81 81 79 80 80 79 84 90 92 93 94 95 95 92 87 87 87 85 84 83 83 83 79 75 74 71 69 69 67 59 53 50 49 50 51 55 57 60 62 65 70 74 79 82 81 80 79 77 75 72 72 73 72 67 68 74 77 75 78 83 81 75 77 85 82 76 85 91 82 75 81
113 102 88 93 111 102 87 90 92 87 85 84 80 78 77 78 80 82 84 87 91 93 95 97 98 98 96 96 94 90 89 88 85 83 81 80 81 80 77 76 73 70 70 63 50 44 43 43 44 44 46 49 52 55 60 64 67 72 79 83 84 83 82 80 76 72 71 71 70 65 67 73 70 65 74 86 82 80 91 87 69 61 84 112 100 84
102 94 84 84 91 95 100 100 92 85 82 81 80 80 79 80 81 83 87 91 95 96 98 100 101 101 101 101 99 96 94 90 85 84 80 76 75 75 76 76 73 73 70 54 42 46 47 44 44 44 44 45 44 45 51 55 54 54 61 72 78 80 82 82 79 76 71 65 65 66 67 76 75 63 58 82 97 105 133 128 112 105 176 179 156 149
100 98 94 95 96 99 108 109 102 92 84 79 79 81 81 83 86 86 89 93 96 97 99 99 100 102 104 104 103 100 96 92 87 85 82 79 76 73 74 76 75 76 67 44 37 47 48 47 49 46 45 45 41 38 43 46 45 43 45 57 68 72 76 76 73 75 81 80 77 68 58 59 69 66 52 36 34 43 62 87 107 101 86 99 133 167
87 113 120 115 110 107 112 115 112 105 95 88 87 87 86 87 89 89 90 91 93 98 102 104 103 101 101 102 102 100 98 95 90 86 84 85 83 74 69 73 78 82 69 29 27 42 43 46 47 41 41 43 39 36 38 38 39 40 38 40 47 49 51 53 46 39 41 51 75 75 54 40 46 57 56 42 20 21 35 42 40 42 44 41 49 84
47 59 87 102 102 103 109 109 102 101 102 101 98 94 91 90 89 87 87 87 87 92 101 106 107 106 103 102 99 96 97 97 91 84 80 83 85 76 63 60 59 63 61 313 317 338 23 29 28 31 36 36 33 33 31 29 34 39 36 34 37 37 39 43 42 36 32 32 55 74 62 42 39 44 48 50 36 18 17 18 17 23 28 25 26 52